Volver al catálogo

STARLINK-11618

ActivoComunicacionesVLEO
NORAD 63185·PAYLOAD·🇺🇸 United States

Lanzado Mar 13, 2025 desde Cape Canaveral Space Force Station

Loading…

Próximos Pases (próximas 24 horas)

TLE

ActualizadoSource: CelesTrak SupGP

Época: Sep 14, 2026, 22:25 UTC

1 63185C 25048C   26257.93451389  .00024337  00000+0  18906-3 0  2578
2 63185  43.0004 258.9762 0001411 250.8612 225.3086 15.70821692    14

Sigue STARLINK-11618 en tiempo real con AllMySat

Download on the App Store